When you browse on this site, cookies collect data to enhance your experience and personalize the content and advertising you see.
Visit our Privacy Policy to learn more. By continuing to use the site, you agree to this use of cookies and data.
  • In Schweiz
  • Länderverzeichnis
  • Für 7 Tage
  • Wassertemperatur
  • Satellitenkarten
  • Wetterkarte
  • Widgets
  • user-avatar
    Anmelden

    Stündliche Wetter Dshalalabad

    Heute, 26 Juni, Mittwoch

    Zeit Temperatur Niederschläge Wind Luftdruck Luftfeuchtigkeit
    00:00 +25°C° 0 mm 3 m/S 693 mmHg 28%
    01:00 +25°C° 0 mm 3 m/S 693 mmHg 29%
    02:00 +24°C° 0 mm 3 m/S 693 mmHg 29%
    03:00 +24°C° 0 mm 2 m/S 693 mmHg 29%
    04:00 +24°C° 0 mm 2 m/S 692 mmHg 29%
    05:00 +23°C° 0 mm 2 m/S 693 mmHg 30%
    06:00 +25°C° 0.1 mm 2 m/S 693 mmHg 27%
    07:00 +28°C° 0.1 mm 1 m/S 693 mmHg 25%
    08:00 +30°C° 0.1 mm 1 m/S 694 mmHg 23%
    09:00 +31°C° 0 mm 1 m/S 694 mmHg 22%
    10:00 +34°C° 0 mm 2 m/S 693 mmHg 21%
    11:00 +35°C° 0 mm 2 m/S 693 mmHg 20%
    12:00 +36°C° 0 mm 2 m/S 693 mmHg 19%
    13:00 +36°C° 0 mm 2 m/S 693 mmHg 17%
    14:00 +37°C° 0 mm 2 m/S 693 mmHg 16%
    15:00 +37°C° 0 mm 2 m/S 693 mmHg 16%
    16:00 +37°C° 0 mm 2 m/S 692 mmHg 16%
    17:00 +37°C° 0 mm 2 m/S 692 mmHg 16%
    18:00 +34°C° 0.1 mm 2 m/S 692 mmHg 20%
    19:00 +31°C° 0.1 mm 2 m/S 692 mmHg 24%
    20:00 +29°C° 0.1 mm 2 m/S 692 mmHg 28%
    21:00 +28°C° 0.2 mm 2 m/S 692 mmHg 30%
    22:00 +27°C° 0.2 mm 2 m/S 692 mmHg 32%
    23:00 +26°C° 0.2 mm 3 m/S 691 mmHg 34%

    Morgen, 27 Juni, Donnerstag

    Zeit Temperatur Niederschläge Wind Luftdruck Luftfeuchtigkeit
    00:00 +25°C° 0.1 mm 3 m/S 691 mmHg 35%
    01:00 +25°C° 0.1 mm 2 m/S 691 mmHg 36%
    02:00 +24°C° 0.1 mm 2 m/S 690 mmHg 37%
    03:00 +24°C° 0.1 mm 2 m/S 690 mmHg 37%
    04:00 +24°C° 0.1 mm 2 m/S 690 mmHg 36%
    05:00 +24°C° 0.1 mm 2 m/S 690 mmHg 36%
    06:00 +25°C° 0.2 mm 2 m/S 690 mmHg 34%
    07:00 +27°C° 0.2 mm 1 m/S 691 mmHg 32%
    08:00 +29°C° 0.2 mm 1 m/S 691 mmHg 30%
    09:00 +30°C° 0.1 mm 2 m/S 691 mmHg 28%
    10:00 +32°C° 0.1 mm 2 m/S 691 mmHg 25%
    11:00 +35°C° 0.1 mm 3 m/S 691 mmHg 23%
    12:00 +35°C° 0 mm 3 m/S 691 mmHg 22%
    13:00 +35°C° 0 mm 3 m/S 691 mmHg 21%
    14:00 +36°C° 0 mm 4 m/S 691 mmHg 20%
    15:00 +34°C° 0.2 mm 6 m/S 690 mmHg 25%
    16:00 +31°C° 0.2 mm 8 m/S 690 mmHg 30%
    17:00 +28°C° 0.2 mm 10 m/S 690 mmHg 35%
    18:00 +28°C° 0 mm 8 m/S 690 mmHg 34%
    19:00 +28°C° 0 mm 6 m/S 691 mmHg 33%
    20:00 +27°C° 0 mm 4 m/S 691 mmHg 33%
    21:00 +26°C° 0 mm 4 m/S 691 mmHg 34%
    22:00 +25°C° 0 mm 4 m/S 691 mmHg 35%
    23:00 +25°C° 0 mm 4 m/S 691 mmHg 37%

    übermorgen, 28 Juni, Freitag

    Zeit Temperatur Niederschläge Wind Luftdruck Luftfeuchtigkeit
    00:00 +24°C° 0 mm 3 m/S 691 mmHg 36%
    01:00 +24°C° 0 mm 3 m/S 690 mmHg 36%
    02:00 +23°C° 0 mm 2 m/S 690 mmHg 35%
    03:00 +23°C° 0 mm 2 m/S 690 mmHg 36%
    04:00 +23°C° 0 mm 2 m/S 690 mmHg 37%
    05:00 +21°C° 0 mm 2 m/S 690 mmHg 38%
    06:00 +24°C° 0 mm 1 m/S 690 mmHg 34%
    07:00 +27°C° 0 mm 1 m/S 690 mmHg 31%
    08:00 +29°C° 0 mm 1 m/S 691 mmHg 27%
    09:00 +31°C° 0 mm 1 m/S 691 mmHg 25%
    10:00 +32°C° 0 mm 1 m/S 690 mmHg 22%
    11:00 +35°C° 0 mm 2 m/S 690 mmHg 20%
    12:00 +36°C° 0 mm 2 m/S 690 mmHg 18%
    13:00 +37°C° 0 mm 2 m/S 690 mmHg 17%
    14:00 +38°C° 0 mm 3 m/S 689 mmHg 15%
    15:00 +37°C° 0 mm 3 m/S 689 mmHg 15%
    16:00 +37°C° 0 mm 2 m/S 689 mmHg 14%
    17:00 +37°C° 0 mm 2 m/S 689 mmHg 14%
    18:00 +35°C° 0 mm 2 m/S 689 mmHg 17%
    19:00 +32°C° 0 mm 2 m/S 689 mmHg 19%
    20:00 +30°C° 0 mm 3 m/S 689 mmHg 21%
    21:00 +29°C° 0 mm 3 m/S 690 mmHg 26%
    22:00 +28°C° 0 mm 4 m/S 690 mmHg 32%
    23:00 +27°C° 0 mm 5 m/S 690 mmHg 37%

    29 Juni, Samstag

    Zeit Temperatur Niederschläge Wind Luftdruck Luftfeuchtigkeit
    00:00 +26°C° 0 mm 4 m/S 690 mmHg 37%
    01:00 +26°C° 0 mm 3 m/S 689 mmHg 38%
    02:00 +25°C° 0 mm 2 m/S 689 mmHg 38%
    03:00 +25°C° 0 mm 2 m/S 689 mmHg 39%
    04:00 +24°C° 0 mm 2 m/S 689 mmHg 40%
    05:00 +24°C° 0 mm 2 m/S 689 mmHg 41%
    06:00 +26°C° 0 mm 2 m/S 689 mmHg 37%
    07:00 +28°C° 0 mm 1 m/S 689 mmHg 33%
    08:00 +30°C° 0 mm 1 m/S 689 mmHg 28%
    09:00 +32°C° 0 mm 1 m/S 689 mmHg 26%
    10:00 +33°C° 0 mm 1 m/S 689 mmHg 23%
    11:00 +36°C° 0 mm 2 m/S 689 mmHg 21%
    12:00 +37°C° 0 mm 2 m/S 689 mmHg 20%
    13:00 +37°C° 0 mm 2 m/S 689 mmHg 18%
    14:00 +38°C° 0 mm 2 m/S 689 mmHg 17%
    15:00 +38°C° 0 mm 2 m/S 689 mmHg 17%
    16:00 +38°C° 0 mm 2 m/S 690 mmHg 16%
    17:00 +38°C° 0 mm 2 m/S 690 mmHg 16%
    18:00 +36°C° 0 mm 2 m/S 690 mmHg 20%
    19:00 +32°C° 0 mm 2 m/S 690 mmHg 24%
    20:00 +30°C° 0 mm 3 m/S 690 mmHg 28%
    21:00 +29°C° 0.1 mm 2 m/S 690 mmHg 30%
    22:00 +28°C° 0.1 mm 2 m/S 690 mmHg 33%
    23:00 +27°C° 0.1 mm 2 m/S 690 mmHg 35%

    30 Juni, Sonntag

    Zeit Temperatur Niederschläge Wind Luftdruck Luftfeuchtigkeit
    00:00 +26°C° 0 mm 2 m/S 690 mmHg 36%
    01:00 +26°C° 0 mm 2 m/S 689 mmHg 37%
    02:00 +25°C° 0 mm 2 m/S 689 mmHg 38%
    03:00 +25°C° 0 mm 2 m/S 689 mmHg 38%
    04:00 +25°C° 0 mm 2 m/S 689 mmHg 38%
    05:00 +24°C° 0 mm 2 m/S 689 mmHg 38%
    06:00 +27°C° 0 mm 2 m/S 689 mmHg 34%
    07:00 +29°C° 0 mm 1 m/S 689 mmHg 31%
    08:00 +31°C° 0 mm 1 m/S 690 mmHg 27%
    09:00 +33°C° 0 mm 1 m/S 690 mmHg 25%
    10:00 +35°C° 0 mm 2 m/S 690 mmHg 23%
    11:00 +37°C° 0 mm 2 m/S 690 mmHg 21%
    12:00 +37°C° 0 mm 2 m/S 690 mmHg 20%
    13:00 +38°C° 0 mm 3 m/S 690 mmHg 18%
    14:00 +39°C° 0 mm 3 m/S 690 mmHg 16%
    15:00 +39°C° 0 mm 3 m/S 690 mmHg 16%
    16:00 +39°C° 0 mm 2 m/S 690 mmHg 15%
    17:00 +39°C° 0 mm 2 m/S 690 mmHg 15%
    18:00 +37°C° 0 mm 2 m/S 690 mmHg 17%
    19:00 +35°C° 0 mm 2 m/S 690 mmHg 19%
    20:00 +32°C° 0 mm 2 m/S 690 mmHg 22%
    21:00 +31°C° 0 mm 2 m/S 690 mmHg 24%
    22:00 +30°C° 0 mm 3 m/S 690 mmHg 26%
    23:00 +28°C° 0 mm 3 m/S 690 mmHg 28%

    1 Juli, Montag

    Zeit Temperatur Niederschläge Wind Luftdruck Luftfeuchtigkeit
    00:00 +28°C° 0 mm 3 m/S 690 mmHg 28%
    01:00 +27°C° 0 mm 3 m/S 689 mmHg 28%
    02:00 +27°C° 0 mm 3 m/S 689 mmHg 29%
    03:00 +27°C° 0 mm 2 m/S 689 mmHg 29%
    04:00 +26°C° 0 mm 2 m/S 689 mmHg 29%
    05:00 +26°C° 0 mm 2 m/S 689 mmHg 29%
    06:00 +28°C° 0 mm 2 m/S 690 mmHg 27%
    07:00 +31°C° 0 mm 1 m/S 690 mmHg 24%
    08:00 +33°C° 0 mm 1 m/S 691 mmHg 21%
    09:00 +36°C° 0 mm 2 m/S 691 mmHg 20%
    10:00 +37°C° 0 mm 2 m/S 691 mmHg 19%
    11:00 +39°C° 0 mm 3 m/S 691 mmHg 18%
    12:00 +39°C° 0 mm 3 m/S 691 mmHg 17%
    13:00 +40°C° 0 mm 3 m/S 691 mmHg 15%
    14:00 +42°C° 0 mm 4 m/S 690 mmHg 14%
    15:00 +42°C° 0 mm 4 m/S 691 mmHg 13%
    16:00 +42°C° 0 mm 4 m/S 691 mmHg 13%
    17:00 +42°C° 0 mm 4 m/S 691 mmHg 12%
    18:00 +40°C° 0 mm 4 m/S 691 mmHg 15%
    19:00 +36°C° 0 mm 3 m/S 691 mmHg 18%
    20:00 +34°C° 0 mm 2 m/S 691 mmHg 20%
    21:00 +32°C° 0 mm 2 m/S 691 mmHg 21%
    22:00 +31°C° 0 mm 2 m/S 691 mmHg 22%
    23:00 +30°C° 0 mm 2 m/S 691 mmHg 22%
    Mehr zeigen